owner,sensor,date,latitude,longitude,vertical_datum,wind_speed,wind_to_direction,wind_speed_of_gust,qcFlag 
WAVCIS,ioos:station:WAVCIS:CSI09:1,2012-01-01T00:00:00Z,29.1015,-89.9782,0.0,4.178,141.0,,'11111222,11111222,99999999' 
WAVCIS,ioos:station:WAVCIS:CSI09:1,2012-01-01T01:00:00Z,29.1015,-89.9782,0.0,5.03,138.0,,'11111222,11111222,99999999' 
WAVCIS,ioos:station:WAVCIS:CSI09:1,2012-01-01T02:00:00Z,29.1015,-89.9782,0.0,5.357,136.0,,'11111222,11111222,99999999' 
WAVCIS,ioos:station:WAVCIS:CSI09:1,2012-01-01T03:00:00Z,29.1015,-89.9782,0.0,5.404,130.0,,'11111222,11111222,99999999' 
WAVCIS,ioos:station:WAVCIS:CSI09:1,2012-01-01T04:00:00Z,29.1015,-89.9782,0.0,5.007,141.0,,'11111222,11111222,99999999' 
WAVCIS,ioos:station:WAVCIS:CSI09:1,2012-01-01T05:00:00Z,29.1015,-89.9782,0.0,4.309,150.0,,'11111222,11111222,99999999' 
WAVCIS,ioos:station:WAVCIS:CSI09:1,2012-01-01T06:00:00Z,29.1015,-89.9782,0.0,3.007,155.0,,'11111222,11111222,99999999' 
WAVCIS,ioos:station:WAVCIS:CSI09:1,2012-01-01T07:00:00Z,29.1015,-89.9782,0.0,4.471,171.0,,'11111222,11111222,99999999' 
WAVCIS,ioos:station:WAVCIS:CSI09:1,2012-01-01T08:00:00Z,29.1015,-89.9782,0.0,5.27,174.0,,'11111222,11111222,99999999' 
WAVCIS,ioos:station:WAVCIS:CSI09:1,2012-01-01T09:00:00Z,29.1015,-89.9782,0.0,4.754,176.0,,'11111222,11111222,99999999' 
WAVCIS,ioos:station:WAVCIS:CSI09:1,2012-01-01T10:00:00Z,29.1015,-89.9782,0.0,3.779,184.0,,'11111222,11111222,99999999' 
WAVCIS,ioos:station:WAVCIS:CSI09:1,2012-01-01T11:00:00Z,29.1015,-89.9782,0.0,2.493,203.0,,'11111222,11111222,99999999' 
WAVCIS,ioos:station:WAVCIS:CSI09:1,2012-01-01T12:00:00Z,29.1015,-89.9782,0.0,3.11,223.0,,'11111222,11111222,99999999' 
WAVCIS,ioos:station:WAVCIS:CSI09:1,2012-01-01T13:00:00Z,29.1015,-89.9782,0.0,4.085,221.0,,'11111222,11111222,99999999' 
WAVCIS,ioos:station:WAVCIS:CSI09:1,2012-01-01T14:00:00Z,29.1015,-89.9782,0.0,6.305,225.0,,'11111222,11111222,99999999' 
WAVCIS,ioos:station:WAVCIS:CSI09:1,2012-01-01T15:00:00Z,29.1015,-89.9782,0.0,3.409,213.0,,'11111222,11111222,99999999' 
WAVCIS,ioos:station:WAVCIS:CSI09:1,2012-01-01T16:00:00Z,29.1015,-89.9782,0.0,4.416,232.0,,'11111222,11111222,99999999' 
WAVCIS,ioos:station:WAVCIS:CSI09:1,2012-01-01T17:00:00Z,29.1015,-89.9782,0.0,4.646,219.0,,'11111222,11111222,99999999' 
WAVCIS,ioos:station:WAVCIS:CSI09:1,2012-01-01T18:00:00Z,29.1015,-89.9782,0.0,6.066,227.0,,'11111222,11111222,99999999' 
WAVCIS,ioos:station:WAVCIS:CSI09:1,2012-01-01T19:00:00Z,29.1015,-89.9782,0.0,6.325,234.0,,'11111222,11111222,99999999' 
WAVCIS,ioos:station:WAVCIS:CSI09:1,2012-01-01T20:00:00Z,29.1015,-89.9782,0.0,5.768,269.0,,'11111222,11111222,99999999' 
WAVCIS,ioos:station:WAVCIS:CSI09:1,2012-01-01T21:00:00Z,29.1015,-89.9782,0.0,5.003,309.0,,'11111222,11111222,99999999' 
WAVCIS,ioos:station:WAVCIS:CSI09:1,2012-01-01T22:00:00Z,29.1015,-89.9782,0.0,2.785,243.0,,'11111222,11111222,99999999' 
WAVCIS,ioos:station:WAVCIS:CSI09:1,2012-01-01T23:00:00Z,29.1015,-89.9782,0.0,5.094,336.0,,'11111222,11111222,99999999' 
WAVCIS,ioos:station:WAVCIS:CSI09:1,2012-01-02T00:00:00Z,29.1015,-89.9782,0.0,8.63,350.0,,'11111222,11111222,99999999' 
WAVCIS,ioos:station:WAVCIS:CSI09:1,2012-01-02T01:00:00Z,29.1015,-89.9782,0.0,10.91,347.0,,'11111222,11111222,99999999' 
WAVCIS,ioos:station:WAVCIS:CSI09:1,2012-01-02T02:00:00Z,29.1015,-89.9782,0.0,13.12,355.0,,'11111222,11111222,99999999' 
WAVCIS,ioos:station:WAVCIS:CSI09:1,2012-01-02T03:00:00Z,29.1015,-89.9782,0.0,12.65,0.0,,'11111222,11111222,99999999' 
WAVCIS,ioos:station:WAVCIS:CSI09:1,2012-01-02T04:00:00Z,29.1015,-89.9782,0.0,14.54,3.0,,'11111222,11111222,99999999' 
WAVCIS,ioos:station:WAVCIS:CSI09:1,2012-01-02T05:00:00Z,29.1015,-89.9782,0.0,13.14,0.0,,'11111222,11144222,99999999' 
WAVCIS,ioos:station:WAVCIS:CSI09:1,2012-01-02T06:00:00Z,29.1015,-89.9782,0.0,14.9,4.0,,'11111222,11111222,99999999' 
WAVCIS,ioos:station:WAVCIS:CSI09:1,2012-01-02T07:00:00Z,29.1015,-89.9782,0.0,15.66,7.0,,'11111222,11111222,99999999' 
WAVCIS,ioos:station:WAVCIS:CSI09:1,2012-01-02T08:00:00Z,29.1015,-89.9782,0.0,15.98,3.0,,'11111222,11111222,99999999' 
WAVCIS,ioos:station:WAVCIS:CSI09:1,2012-01-02T09:00:00Z,29.1015,-89.9782,0.0,16.07,11.0,,'11111222,11111222,99999999' 
WAVCIS,ioos:station:WAVCIS:CSI09:1,2012-01-02T10:00:00Z,29.1015,-89.9782,0.0,13.18,12.0,,'11111222,11111222,99999999' 
WAVCIS,ioos:station:WAVCIS:CSI09:1,2012-01-02T11:00:00Z,29.1015,-89.9782,0.0,14.23,9.0,,'11111222,11111222,99999999' 
WAVCIS,ioos:station:WAVCIS:CSI09:1,2012-01-02T12:00:00Z,29.1015,-89.9782,0.0,13.15,16.0,,'11111222,11111222,99999999' 
WAVCIS,ioos:station:WAVCIS:CSI09:1,2012-01-02T13:00:00Z,29.1015,-89.9782,0.0,13.88,17.0,,'11111222,11111222,99999999' 
WAVCIS,ioos:station:WAVCIS:CSI09:1,2012-01-02T14:00:00Z,29.1015,-89.9782,0.0,13.32,14.0,,'11111222,11111222,99999999' 
WAVCIS,ioos:station:WAVCIS:CSI09:1,2012-01-02T15:00:00Z,29.1015,-89.9782,0.0,14.02,11.0,,'11111222,11111222,99999999' 
WAVCIS,ioos:station:WAVCIS:CSI09:1,2012-01-02T16:00:00Z,29.1015,-89.9782,0.0,13.08,13.0,,'11111222,11111222,99999999' 
WAVCIS,ioos:station:WAVCIS:CSI09:1,2012-01-02T17:00:00Z,29.1015,-89.9782,0.0,11.38,8.0,,'11111222,11111222,99999999' 
WAVCIS,ioos:station:WAVCIS:CSI09:1,2012-01-02T18:00:00Z,29.1015,-89.9782,0.0,8.46,349.0,,'11111222,11111222,99999999' 
WAVCIS,ioos:station:WAVCIS:CSI09:1,2012-01-02T19:00:00Z,29.1015,-89.9782,0.0,8.8,346.0,,'11111222,11111222,99999999' 
WAVCIS,ioos:station:WAVCIS:CSI09:1,2012-01-02T20:00:00Z,29.1015,-89.9782,0.0,8.05,337.0,,'11111222,11111222,99999999' 
WAVCIS,ioos:station:WAVCIS:CSI09:1,2012-01-02T21:00:00Z,29.1015,-89.9782,0.0,8.93,338.0,,'11111222,11111222,99999999' 
WAVCIS,ioos:station:WAVCIS:CSI09:1,2012-01-02T22:00:00Z,29.1015,-89.9782,0.0,6.575,333.0,,'11111222,11111222,99999999' 
WAVCIS,ioos:station:WAVCIS:CSI09:1,2012-01-02T23:00:00Z,29.1015,-89.9782,0.0,5.594,331.0,,'11111222,11111222,99999999' 
WAVCIS,ioos:station:WAVCIS:CSI09:1,2012-01-03T00:00:00Z,29.1015,-89.9782,0.0,4.886,313.0,,'11111222,11111222,99999999' 
WAVCIS,ioos:station:WAVCIS:CSI09:1,2012-01-03T01:00:00Z,29.1015,-89.9782,0.0,8.25,306.0,,'11111222,11111222,99999999' 
WAVCIS,ioos:station:WAVCIS:CSI09:1,2012-01-03T02:00:00Z,29.1015,-89.9782,0.0,11.65,303.0,,'11111222,11111222,99999999' 
WAVCIS,ioos:station:WAVCIS:CSI09:1,2012-01-03T03:00:00Z,29.1015,-89.9782,0.0,11.8,316.0,,'11111222,11111222,99999999' 
WAVCIS,ioos:station:WAVCIS:CSI09:1,2012-01-03T04:00:00Z,29.1015,-89.9782,0.0,10.99,327.0,,'11111222,11111222,99999999' 
WAVCIS,ioos:station:WAVCIS:CSI09:1,2012-01-03T05:00:00Z,29.1015,-89.9782,0.0,9.47,330.0,,'11111222,11111222,99999999' 
WAVCIS,ioos:station:WAVCIS:CSI09:1,2012-01-03T06:00:00Z,29.1015,-89.9782,0.0,10.61,343.0,,'11111222,11111222,99999999' 
WAVCIS,ioos:station:WAVCIS:CSI09:1,2012-01-03T07:00:00Z,29.1015,-89.9782,0.0,12.03,342.0,,'11111222,11111222,99999999' 
WAVCIS,ioos:station:WAVCIS:CSI09:1,2012-01-03T08:00:00Z,29.1015,-89.9782,0.0,11.08,342.0,,'11111222,11111222,99999999' 
WAVCIS,ioos:station:WAVCIS:CSI09:1,2012-01-03T09:00:00Z,29.1015,-89.9782,0.0,12.73,352.0,,'11111222,11111222,99999999' 
WAVCIS,ioos:station:WAVCIS:CSI09:1,2012-01-03T10:00:00Z,29.1015,-89.9782,0.0,13.31,2.0,,'11111222,11111222,99999999' 
WAVCIS,ioos:station:WAVCIS:CSI09:1,2012-01-03T11:00:00Z,29.1015,-89.9782,0.0,13.57,8.0,,'11111222,11111222,99999999' 
WAVCIS,ioos:station:WAVCIS:CSI09:1,2012-01-03T12:00:00Z,29.1015,-89.9782,0.0,12.69,15.0,,'11111222,11111222,99999999' 
WAVCIS,ioos:station:WAVCIS:CSI09:1,2012-01-03T13:00:00Z,29.1015,-89.9782,0.0,12.22,24.0,,'11111222,11111222,99999999' 
WAVCIS,ioos:station:WAVCIS:CSI09:1,2012-01-03T14:00:00Z,29.1015,-89.9782,0.0,11.19,24.0,,'11111222,11111222,99999999' 
WAVCIS,ioos:station:WAVCIS:CSI09:1,2012-01-03T15:00:00Z,29.1015,-89.9782,0.0,11.61,32.0,,'11111222,11111222,99999999' 
WAVCIS,ioos:station:WAVCIS:CSI09:1,2012-01-03T16:00:00Z,29.1015,-89.9782,0.0,10.07,27.0,,'11111222,11111222,99999999' 
WAVCIS,ioos:station:WAVCIS:CSI09:1,2012-01-03T17:00:00Z,29.1015,-89.9782,0.0,8.31,32.0,,'11111222,11111222,99999999' 
WAVCIS,ioos:station:WAVCIS:CSI09:1,2012-01-03T18:00:00Z,29.1015,-89.9782,0.0,7.01,24.0,,'11111222,11111222,99999999' 
WAVCIS,ioos:station:WAVCIS:CSI09:1,2012-01-03T19:00:00Z,29.1015,-89.9782,0.0,5.92,3.0,,'11111222,11111222,99999999' 
WAVCIS,ioos:station:WAVCIS:CSI09:1,2012-01-03T20:00:00Z,29.1015,-89.9782,0.0,5.817,1.0,,'11111222,11111222,99999999' 
WAVCIS,ioos:station:WAVCIS:CSI09:1,2012-01-03T21:00:00Z,29.1015,-89.9782,0.0,5.679,9.0,,'11111222,11111222,99999999' 
WAVCIS,ioos:station:WAVCIS:CSI09:1,2012-01-03T22:00:00Z,29.1015,-89.9782,0.0,4.175,15.0,,'11111222,11111222,99999999' 
WAVCIS,ioos:station:WAVCIS:CSI09:1,2012-01-03T23:00:00Z,29.1015,-89.9782,0.0,2.529,25.0,,'11111222,11111222,99999999' 
WAVCIS,ioos:station:WAVCIS:CSI09:1,2012-01-04T00:00:00Z,29.1015,-89.9782,0.0,3.275,334.0,,'11111222,11111222,99999999' 
WAVCIS,ioos:station:WAVCIS:CSI09:1,2012-01-04T01:00:00Z,29.1015,-89.9782,0.0,4.865,313.0,,'11111222,11111222,99999999' 
WAVCIS,ioos:station:WAVCIS:CSI09:1,2012-01-04T02:00:00Z,29.1015,-89.9782,0.0,3.128,12.0,,'11111222,11111222,99999999' 
WAVCIS,ioos:station:WAVCIS:CSI09:1,2012-01-04T03:00:00Z,29.1015,-89.9782,0.0,3.068,23.0,,'11111222,11111222,99999999' 
WAVCIS,ioos:station:WAVCIS:CSI09:1,2012-01-04T04:00:00Z,29.1015,-89.9782,0.0,0.866,24.0,,'11111222,11111222,99999999' 
WAVCIS,ioos:station:WAVCIS:CSI09:1,2012-01-04T05:00:00Z,29.1015,-89.9782,0.0,1.313,90.0,,'11111222,11111222,99999999' 
WAVCIS,ioos:station:WAVCIS:CSI09:1,2012-01-04T06:00:00Z,29.1015,-89.9782,0.0,1.59,114.0,,'11111222,11111222,99999999' 
WAVCIS,ioos:station:WAVCIS:CSI09:1,2012-01-04T07:00:00Z,29.1015,-89.9782,0.0,2.308,138.0,,'11111222,11111222,99999999' 
WAVCIS,ioos:station:WAVCIS:CSI09:1,2012-01-04T08:00:00Z,29.1015,-89.9782,0.0,2.145,129.0,,'11111222,11111222,99999999' 
WAVCIS,ioos:station:WAVCIS:CSI09:1,2012-01-04T09:00:00Z,29.1015,-89.9782,0.0,1.322,111.0,,'11111222,11111222,99999999' 
WAVCIS,ioos:station:WAVCIS:CSI09:1,2012-01-04T10:00:00Z,29.1015,-89.9782,0.0,1.591,152.0,,'11111222,11111222,99999999' 
WAVCIS,ioos:station:WAVCIS:CSI09:1,2012-01-04T11:00:00Z,29.1015,-89.9782,0.0,2.48,158.0,,'11111222,11111222,99999999' 
WAVCIS,ioos:station:WAVCIS:CSI09:1,2012-01-04T12:00:00Z,29.1015,-89.9782,0.0,2.853,142.0,,'11111222,11111222,99999999' 
WAVCIS,ioos:station:WAVCIS:CSI09:1,2012-01-04T13:00:00Z,29.1015,-89.9782,0.0,2.382,153.0,,'11111222,11111222,99999999' 
WAVCIS,ioos:station:WAVCIS:CSI09:1,2012-01-04T14:00:00Z,29.1015,-89.9782,0.0,1.805,180.0,,'11111222,11111222,99999999' 
WAVCIS,ioos:station:WAVCIS:CSI09:1,2012-01-04T15:00:00Z,29.1015,-89.9782,0.0,1.658,235.0,,'11111222,11111222,99999999' 
WAVCIS,ioos:station:WAVCIS:CSI09:1,2012-01-04T16:00:00Z,29.1015,-89.9782,0.0,1.523,270.0,,'11111222,11111222,99999999' 
WAVCIS,ioos:station:WAVCIS:CSI09:1,2012-01-04T17:00:00Z,29.1015,-89.9782,0.0,3.793,38.0,,'11111222,11111222,99999999' 
WAVCIS,ioos:station:WAVCIS:CSI09:1,2012-01-04T18:00:00Z,29.1015,-89.9782,0.0,4.498,79.0,,'11111222,11111222,99999999' 
WAVCIS,ioos:station:WAVCIS:CSI09:1,2012-01-04T19:00:00Z,29.1015,-89.9782,0.0,3.99,113.0,,'11111222,11111222,99999999' 
WAVCIS,ioos:station:WAVCIS:CSI09:1,2012-01-04T20:00:00Z,29.1015,-89.9782,0.0,6.385,124.0,,'11111222,11111222,99999999' 
WAVCIS,ioos:station:WAVCIS:CSI09:1,2012-01-04T21:00:00Z,29.1015,-89.9782,0.0,6.213,133.0,,'11111222,11111222,99999999' 
WAVCIS,ioos:station:WAVCIS:CSI09:1,2012-01-04T22:00:00Z,29.1015,-89.9782,0.0,5.848,141.0,,'11111222,11111222,99999999' 
WAVCIS,ioos:station:WAVCIS:CSI09:1,2012-01-04T23:00:00Z,29.1015,-89.9782,0.0,6.446,146.0,,'11111222,11111222,99999999' 
WAVCIS,ioos:station:WAVCIS:CSI09:1,2012-01-05T00:00:00Z,29.1015,-89.9782,0.0,6.394,154.0,,'11111222,11111222,99999999' 
WAVCIS,ioos:station:WAVCIS:CSI09:1,2012-01-05T01:00:00Z,29.1015,-89.9782,0.0,6.108,167.0,,'11111222,11111222,99999999' 
WAVCIS,ioos:station:WAVCIS:CSI09:1,2012-01-05T02:00:00Z,29.1015,-89.9782,0.0,6.232,175.0,,'11111222,11111222,99999999' 
WAVCIS,ioos:station:WAVCIS:CSI09:1,2012-01-05T03:00:00Z,29.1015,-89.9782,0.0,6.351,178.0,,'11111222,11111222,99999999' 
WAVCIS,ioos:station:WAVCIS:CSI09:1,2012-01-05T04:00:00Z,29.1015,-89.9782,0.0,3.653,199.0,,'11111222,11111222,99999999' 
WAVCIS,ioos:station:WAVCIS:CSI09:1,2012-01-05T05:00:00Z,29.1015,-89.9782,0.0,3.512,202.0,,'11111222,11111222,99999999' 
WAVCIS,ioos:station:WAVCIS:CSI09:1,2012-01-05T06:00:00Z,29.1015,-89.9782,0.0,5.08,218.0,,'11111222,11111222,99999999' 
WAVCIS,ioos:station:WAVCIS:CSI09:1,2012-01-05T07:00:00Z,29.1015,-89.9782,0.0,4.911,218.0,,'11111222,11111222,99999999' 
WAVCIS,ioos:station:WAVCIS:CSI09:1,2012-01-05T08:00:00Z,29.1015,-89.9782,0.0,5.6,225.0,,'11111222,11111222,99999999' 
WAVCIS,ioos:station:WAVCIS:CSI09:1,2012-01-05T09:00:00Z,29.1015,-89.9782,0.0,5.587,237.0,,'11111222,11111222,99999999' 
WAVCIS,ioos:station:WAVCIS:CSI09:1,2012-01-05T10:00:00Z,29.1015,-89.9782,0.0,5.682,231.0,,'11111222,11111222,99999999' 
WAVCIS,ioos:station:WAVCIS:CSI09:1,2012-01-05T11:00:00Z,29.1015,-89.9782,0.0,6.381,232.0,,'11111222,11111222,99999999' 
WAVCIS,ioos:station:WAVCIS:CSI09:1,2012-01-05T12:00:00Z,29.1015,-89.9782,0.0,6.441,226.0,,'11111222,11111222,99999999' 
WAVCIS,ioos:station:WAVCIS:CSI09:1,2012-01-05T13:00:00Z,29.1015,-89.9782,0.0,5.895,287.0,,'11111222,11111222,99999999' 
WAVCIS,ioos:station:WAVCIS:CSI09:1,2012-01-05T14:00:00Z,29.1015,-89.9782,0.0,6.732,274.0,,'11111222,11111222,99999999' 
WAVCIS,ioos:station:WAVCIS:CSI09:1,2012-01-05T15:00:00Z,29.1015,-89.9782,0.0,4.396,264.0,,'11111222,11111222,99999999' 
WAVCIS,ioos:station:WAVCIS:CSI09:1,2012-01-05T16:00:00Z,29.1015,-89.9782,0.0,2.691,261.0,,'11111222,11111222,99999999' 
WAVCIS,ioos:station:WAVCIS:CSI09:1,2012-01-05T17:00:00Z,29.1015,-89.9782,0.0,3.125,273.0,,'11111222,11111222,99999999' 
WAVCIS,ioos:station:WAVCIS:CSI09:1,2012-01-05T18:00:00Z,29.1015,-89.9782,0.0,3.887,255.0,,'11111222,11111222,99999999' 
WAVCIS,ioos:station:WAVCIS:CSI09:1,2012-01-05T19:00:00Z,29.1015,-89.9782,0.0,5.444,259.0,,'11111222,11111222,99999999' 
WAVCIS,ioos:station:WAVCIS:CSI09:1,2012-01-05T20:00:00Z,29.1015,-89.9782,0.0,5.774,245.0,,'11111222,11111222,99999999' 
WAVCIS,ioos:station:WAVCIS:CSI09:1,2012-01-05T21:00:00Z,29.1015,-89.9782,0.0,5.584,245.0,,'11111222,11111222,99999999' 
WAVCIS,ioos:station:WAVCIS:CSI09:1,2012-01-05T22:00:00Z,29.1015,-89.9782,0.0,5.042,247.0,,'11111222,11111222,99999999' 
WAVCIS,ioos:station:WAVCIS:CSI09:1,2012-01-05T23:00:00Z,29.1015,-89.9782,0.0,7.15,242.0,,'11111222,11111222,99999999' 
WAVCIS,ioos:station:WAVCIS:CSI09:1,2012-01-06T00:00:00Z,29.1015,-89.9782,0.0,5.987,236.0,,'11111222,11111222,99999999' 
WAVCIS,ioos:station:WAVCIS:CSI09:1,2012-01-06T01:00:00Z,29.1015,-89.9782,0.0,6.454,237.0,,'11111222,11111222,99999999' 
WAVCIS,ioos:station:WAVCIS:CSI09:1,2012-01-06T02:00:00Z,29.1015,-89.9782,0.0,6.008,238.0,,'11111222,11111222,99999999' 
WAVCIS,ioos:station:WAVCIS:CSI09:1,2012-01-06T03:00:00Z,29.1015,-89.9782,0.0,4.35,249.0,,'11111222,11111222,99999999' 
WAVCIS,ioos:station:WAVCIS:CSI09:1,2012-01-06T04:00:00Z,29.1015,-89.9782,0.0,3.219,248.0,,'11111222,11111222,99999999' 
WAVCIS,ioos:station:WAVCIS:CSI09:1,2012-01-06T05:00:00Z,29.1015,-89.9782,0.0,3.331,238.0,,'11111222,11111222,99999999' 
WAVCIS,ioos:station:WAVCIS:CSI09:1,2012-01-06T06:00:00Z,29.1015,-89.9782,0.0,3.644,234.0,,'11111222,11111222,99999999' 
WAVCIS,ioos:station:WAVCIS:CSI09:1,2012-01-06T07:00:00Z,29.1015,-89.9782,0.0,3.34,233.0,,'11111222,11111222,99999999' 
WAVCIS,ioos:station:WAVCIS:CSI09:1,2012-01-06T08:00:00Z,29.1015,-89.9782,0.0,2.451,238.0,,'11111222,11111222,99999999' 
WAVCIS,ioos:station:WAVCIS:CSI09:1,2012-01-06T09:00:00Z,29.1015,-89.9782,0.0,1.984,242.0,,'11111222,11111222,99999999' 
WAVCIS,ioos:station:WAVCIS:CSI09:1,2012-01-06T10:00:00Z,29.1015,-89.9782,0.0,2.322,227.0,,'11111222,11111222,99999999' 
WAVCIS,ioos:station:WAVCIS:CSI09:1,2012-01-06T11:00:00Z,29.1015,-89.9782,0.0,3.322,227.0,,'11111222,11111222,99999999' 
WAVCIS,ioos:station:WAVCIS:CSI09:1,2012-01-06T12:00:00Z,29.1015,-89.9782,0.0,1.442,211.0,,'11111222,11111222,99999999' 
WAVCIS,ioos:station:WAVCIS:CSI09:1,2012-01-06T13:00:00Z,29.1015,-89.9782,0.0,4.275,235.0,,'11111222,11111222,99999999' 
WAVCIS,ioos:station:WAVCIS:CSI09:1,2012-01-06T14:00:00Z,29.1015,-89.9782,0.0,1.62,213.0,,'11111222,11111222,99999999' 
WAVCIS,ioos:station:WAVCIS:CSI09:1,2012-01-06T15:00:00Z,29.1015,-89.9782,0.0,0.309,152.0,,'11111222,11111222,99999999' 
WAVCIS,ioos:station:WAVCIS:CSI09:1,2012-01-06T16:00:00Z,29.1015,-89.9782,0.0,1.278,130.0,,'11111222,11111222,99999999' 
WAVCIS,ioos:station:WAVCIS:CSI09:1,2012-01-06T17:00:00Z,29.1015,-89.9782,0.0,1.841,159.0,,'11111222,11111222,99999999' 
WAVCIS,ioos:station:WAVCIS:CSI09:1,2012-01-06T18:00:00Z,29.1015,-89.9782,0.0,1.519,178.0,,'11111222,11111222,99999999' 
WAVCIS,ioos:station:WAVCIS:CSI09:1,2012-01-06T19:00:00Z,29.1015,-89.9782,0.0,2.374,235.0,,'11111222,11111222,99999999' 
WAVCIS,ioos:station:WAVCIS:CSI09:1,2012-01-06T20:00:00Z,29.1015,-89.9782,0.0,2.866,240.0,,'11111222,11111222,99999999' 
WAVCIS,ioos:station:WAVCIS:CSI09:1,2012-01-06T21:00:00Z,29.1015,-89.9782,0.0,1.855,247.0,,'11111222,11111222,99999999' 
WAVCIS,ioos:station:WAVCIS:CSI09:1,2012-01-06T22:00:00Z,29.1015,-89.9782,0.0,1.222,202.0,,'11111222,11111222,99999999' 
WAVCIS,ioos:station:WAVCIS:CSI09:1,2012-01-06T23:00:00Z,29.1015,-89.9782,0.0,1.481,195.0,,'11111222,11111222,99999999' 
WAVCIS,ioos:station:WAVCIS:CSI09:1,2012-01-07T00:00:00Z,29.1015,-89.9782,0.0,2.593,171.0,,'11111222,11111222,99999999' 
WAVCIS,ioos:station:WAVCIS:CSI09:1,2012-01-07T01:00:00Z,29.1015,-89.9782,0.0,2.925,162.0,,'11111222,11111222,99999999' 
WAVCIS,ioos:station:WAVCIS:CSI09:1,2012-01-07T02:00:00Z,29.1015,-89.9782,0.0,4.821,134.0,,'11111222,11111222,99999999' 
WAVCIS,ioos:station:WAVCIS:CSI09:1,2012-01-07T03:00:00Z,29.1015,-89.9782,0.0,4.703,139.0,,'11111222,11111222,99999999' 
WAVCIS,ioos:station:WAVCIS:CSI09:1,2012-01-07T04:00:00Z,29.1015,-89.9782,0.0,4.586,136.0,,'11111222,11111222,99999999' 
WAVCIS,ioos:station:WAVCIS:CSI09:1,2012-01-07T05:00:00Z,29.1015,-89.9782,0.0,6.164,128.0,,'11111222,11111222,99999999' 
WAVCIS,ioos:station:WAVCIS:CSI09:1,2012-01-07T06:00:00Z,29.1015,-89.9782,0.0,5.652,126.0,,'11111222,11111222,99999999' 
WAVCIS,ioos:station:WAVCIS:CSI09:1,2012-01-07T07:00:00Z,29.1015,-89.9782,0.0,5.969,139.0,,'11111222,11111222,99999999' 
WAVCIS,ioos:station:WAVCIS:CSI09:1,2012-01-07T08:00:00Z,29.1015,-89.9782,0.0,5.091,139.0,,'11111222,11111222,99999999' 
WAVCIS,ioos:station:WAVCIS:CSI09:1,2012-01-07T09:00:00Z,29.1015,-89.9782,0.0,3.788,139.0,,'11111222,11111222,99999999' 
WAVCIS,ioos:station:WAVCIS:CSI09:1,2012-01-07T10:00:00Z,29.1015,-89.9782,0.0,3.873,144.0,,'11111222,11111222,99999999' 
WAVCIS,ioos:station:WAVCIS:CSI09:1,2012-01-07T11:00:00Z,29.1015,-89.9782,0.0,3.129,130.0,,'11111222,11111222,99999999' 
WAVCIS,ioos:station:WAVCIS:CSI09:1,2012-01-07T12:00:00Z,29.1015,-89.9782,0.0,2.676,145.0,,'11111222,11111222,99999999' 
WAVCIS,ioos:station:WAVCIS:CSI09:1,2012-01-07T13:00:00Z,29.1015,-89.9782,0.0,2.957,130.0,,'11111222,11111222,99999999' 
WAVCIS,ioos:station:WAVCIS:CSI09:1,2012-01-07T14:00:00Z,29.1015,-89.9782,0.0,1.182,187.0,,'11111222,11111222,99999999' 
WAVCIS,ioos:station:WAVCIS:CSI09:1,2012-01-07T15:00:00Z,29.1015,-89.9782,0.0,1.473,246.0,,'11111222,11111222,99999999' 
WAVCIS,ioos:station:WAVCIS:CSI09:1,2012-01-07T16:00:00Z,29.1015,-89.9782,0.0,5.422,281.0,,'11111222,11111222,99999999' 
WAVCIS,ioos:station:WAVCIS:CSI09:1,2012-01-07T17:00:00Z,29.1015,-89.9782,0.0,2.877,181.0,,'11111222,11111222,99999999' 
WAVCIS,ioos:station:WAVCIS:CSI09:1,2012-01-07T18:00:00Z,29.1015,-89.9782,0.0,2.933,172.0,,'11111222,11111222,99999999' 
WAVCIS,ioos:station:WAVCIS:CSI09:1,2012-01-07T19:00:00Z,29.1015,-89.9782,0.0,1.867,145.0,,'11111222,11111222,99999999' 
WAVCIS,ioos:station:WAVCIS:CSI09:1,2012-01-07T20:00:00Z,29.1015,-89.9782,0.0,1.489,157.0,,'11111222,11111222,99999999' 
WAVCIS,ioos:station:WAVCIS:CSI09:1,2012-01-07T21:00:00Z,29.1015,-89.9782,0.0,3.352,128.0,,'11111222,11111222,99999999' 
WAVCIS,ioos:station:WAVCIS:CSI09:1,2012-01-07T22:00:00Z,29.1015,-89.9782,0.0,3.445,128.0,,'11111222,11111222,99999999' 
WAVCIS,ioos:station:WAVCIS:CSI09:1,2012-01-07T23:00:00Z,29.1015,-89.9782,0.0,4.232,133.0,,'11111222,11111222,99999999' 
WAVCIS,ioos:station:WAVCIS:CSI09:1,2012-01-08T00:00:00Z,29.1015,-89.9782,0.0,4.271,145.0,,'11111222,11111222,99999999' 
WAVCIS,ioos:station:WAVCIS:CSI09:1,2012-01-08T01:00:00Z,29.1015,-89.9782,0.0,4.866,144.0,,'11111222,11111222,99999999' 
WAVCIS,ioos:station:WAVCIS:CSI09:1,2012-01-08T02:00:00Z,29.1015,-89.9782,0.0,4.907,139.0,,'11111222,11111222,99999999' 
WAVCIS,ioos:station:WAVCIS:CSI09:1,2012-01-08T03:00:00Z,29.1015,-89.9782,0.0,4.583,131.0,,'11111222,11111222,99999999' 
WAVCIS,ioos:station:WAVCIS:CSI09:1,2012-01-08T04:00:00Z,29.1015,-89.9782,0.0,5.559,141.0,,'11111222,11111222,99999999' 
WAVCIS,ioos:station:WAVCIS:CSI09:1,2012-01-08T05:00:00Z,29.1015,-89.9782,0.0,6.45,148.0,,'11111222,11111222,99999999' 
WAVCIS,ioos:station:WAVCIS:CSI09:1,2012-01-08T06:00:00Z,29.1015,-89.9782,0.0,6.218,160.0,,'11111222,11111222,99999999' 
WAVCIS,ioos:station:WAVCIS:CSI09:1,2012-01-08T07:00:00Z,29.1015,-89.9782,0.0,5.651,151.0,,'11111222,11111222,99999999' 
WAVCIS,ioos:station:WAVCIS:CSI09:1,2012-01-08T08:00:00Z,29.1015,-89.9782,0.0,5.35,164.0,,'11111222,11111222,99999999' 
WAVCIS,ioos:station:WAVCIS:CSI09:1,2012-01-08T09:00:00Z,29.1015,-89.9782,0.0,4.398,163.0,,'11111222,11111222,99999999' 
WAVCIS,ioos:station:WAVCIS:CSI09:1,2012-01-08T10:00:00Z,29.1015,-89.9782,0.0,4.021,158.0,,'11111222,11111222,99999999' 
WAVCIS,ioos:station:WAVCIS:CSI09:1,2012-01-08T11:00:00Z,29.1015,-89.9782,0.0,4.277,155.0,,'11111222,11111222,99999999' 
WAVCIS,ioos:station:WAVCIS:CSI09:1,2012-01-08T12:00:00Z,29.1015,-89.9782,0.0,4.742,154.0,,'11111222,11111222,99999999' 
WAVCIS,ioos:station:WAVCIS:CSI09:1,2012-01-08T13:00:00Z,29.1015,-89.9782,0.0,4.893,156.0,,'11111222,11111222,99999999' 
WAVCIS,ioos:station:WAVCIS:CSI09:1,2012-01-08T14:00:00Z,29.1015,-89.9782,0.0,5.244,152.0,,'11111222,11111222,99999999' 
WAVCIS,ioos:station:WAVCIS:CSI09:1,2012-01-08T15:00:00Z,29.1015,-89.9782,0.0,4.341,159.0,,'11111222,11111222,99999999' 
WAVCIS,ioos:station:WAVCIS:CSI09:1,2012-01-08T16:00:00Z,29.1015,-89.9782,0.0,4.278,148.0,,'11111222,11111222,99999999' 
WAVCIS,ioos:station:WAVCIS:CSI09:1,2012-01-08T17:00:00Z,29.1015,-89.9782,0.0,4.441,159.0,,'11111222,11111222,99999999' 
WAVCIS,ioos:station:WAVCIS:CSI09:1,2012-01-08T18:00:00Z,29.1015,-89.9782,0.0,4.15,157.0,,'11111222,11111222,99999999' 
WAVCIS,ioos:station:WAVCIS:CSI09:1,2012-01-08T19:00:00Z,29.1015,-89.9782,0.0,4.29,145.0,,'11111222,11111222,99999999' 
WAVCIS,ioos:station:WAVCIS:CSI09:1,2012-01-08T20:00:00Z,29.1015,-89.9782,0.0,4.682,139.0,,'11111222,11111222,99999999' 
WAVCIS,ioos:station:WAVCIS:CSI09:1,2012-01-08T21:00:00Z,29.1015,-89.9782,0.0,5.279,139.0,,'11111222,11111222,99999999' 
WAVCIS,ioos:station:WAVCIS:CSI09:1,2012-01-08T22:00:00Z,29.1015,-89.9782,0.0,5.18,134.0,,'11111222,11111222,99999999' 
WAVCIS,ioos:station:WAVCIS:CSI09:1,2012-01-08T23:00:00Z,29.1015,-89.9782,0.0,5.818,133.0,,'11111222,11111222,99999999' 
WAVCIS,ioos:station:WAVCIS:CSI09:1,2012-01-09T00:00:00Z,29.1015,-89.9782,0.0,5.798,122.0,,'11111222,11111222,99999999' 
WAVCIS,ioos:station:WAVCIS:CSI09:1,2012-01-09T01:00:00Z,29.1015,-89.9782,0.0,5.323,128.0,,'11111222,11111222,99999999' 
WAVCIS,ioos:station:WAVCIS:CSI09:1,2012-01-09T02:00:00Z,29.1015,-89.9782,0.0,5.224,131.0,,'11111222,11111222,99999999' 
WAVCIS,ioos:station:WAVCIS:CSI09:1,2012-01-09T03:00:00Z,29.1015,-89.9782,0.0,4.399,139.0,,'11111222,11111222,99999999' 
WAVCIS,ioos:station:WAVCIS:CSI09:1,2012-01-09T04:00:00Z,29.1015,-89.9782,0.0,3.754,154.0,,'11111222,11111222,99999999' 
WAVCIS,ioos:station:WAVCIS:CSI09:1,2012-01-09T05:00:00Z,29.1015,-89.9782,0.0,2.748,157.0,,'11111222,11111222,99999999' 
WAVCIS,ioos:station:WAVCIS:CSI09:1,2012-01-09T06:00:00Z,29.1015,-89.9782,0.0,3.802,123.0,,'11111222,11111222,99999999' 